Terminal Aerodrome Forecast
Issued by NWS

Home | Current Version | Previous Version | Text Only | Print | Product List | Glossary On
Versions: 1 2 3 4 5 6 7 8 9 10 11 12 13
000
FTUS45 KRIW 242300 RRA
TAFCOD
TAF
KCOD 242341Z 2500/2524 26015G24KT P6SM SCT100
     FM250300 25011KT P6SM BKN250
     FM250900 VRB06KT P6SM BKN120
     FM252100 25011KT P6SM SCT060 BKN150
      AMD LTD TO CLD VIS AND WIND=

USA.gov is the U.S. government's official web portal to all federal, state and local government web resources and services.